EW1896 Weather Reports


time (UTC)temp
F
wind
direction
speed
knots
gust
knots
rain 1hr
in
rain 24hr
in
rain mn
in
humidity
%
barometer
mb
20211017164525 66 42 0.0 2.6 0.00 0.00 0.00 52 1022.5
20211017163018 65 13 0.9 7.8 0.00 0.00 0.00 50 1022.7
20211017161518 65 353 0.0 7.0 0.00 0.00 0.00 52 1022.7
20211017160017 64 79 0.0 10.4 0.00 0.00 0.00 54 1022.9
20211017154512 63 36 0.0 8.7 0.00 0.00 0.00 57 1023.0
20211017153007 63 20 0.0 3.5 0.00 0.00 0.00 60 1022.9
20211017151518 61 30 0.9 8.7 0.00 0.00 0.00 63 1022.9
20211017150320 60 50 0.0 7.0 0.00 0.00 0.00 65 1023.1
20211017144623 60 23 0.0 1.7 0.00 0.00 0.00 67 1023.2
20211017143121 59 19 0.0 3.5 0.00 0.00 0.00 70 1023.4
20211017141622 58 58 0.0 1.7 0.00 0.00 0.00 73 1023.5
20211017140045 56 354 0.0 0.0 0.00 0.00 0.00 80 1023.1
20211017134758 54 19 0.0 0.0 0.00 0.00 0.00 83 1022.9
20211017133113 53 353 0.0 0.0 0.00 0.00 0.00 85 1022.8
20211017131605 52 334 0.0 0.0 0.00 0.00 0.00 89 1022.7
20211017130043 51 355 0.0 0.0 0.00 0.00 0.00 90 1022.5
20211017124621 49 333 0.0 0.0 0.00 0.00 0.00 91 1022.4
20211017123136 49 330 0.0 0.0 0.00 0.00 0.00 91 1022.4
20211017121550 48 322 0.0 0.0 0.00 0.00 0.00 93 1022.3
20211017120047 47 330 0.0 0.0 0.00 0.00 0.00 93 1022.1
20211017114548 47 321 0.0 0.0 0.00 0.00 0.00 92 1022.0
20211017113034 47 321 0.0 0.0 0.00 0.00 0.00 92 1021.8
20211017111521 48 304 0.0 0.0 0.00 0.00 0.00 92 1021.6
20211017110047 48 313 0.0 0.0 0.00 0.00 0.00 92 1021.5
20211017104528 47 323 0.0 0.0 0.00 0.00 0.00 92 1021.3
20211017103022 47 319 0.0 0.0 0.00 0.00 0.00 93 1021.4
20211017101520 47 305 0.0 0.0 0.00 0.00 0.00 93 1021.4
20211017100014 48 306 0.0 0.0 0.00 0.00 0.00 93 1021.3
20211017094519 48 314 0.0 0.0 0.00 0.01 0.00 93 1021.1
20211017093017 48 311 0.0 0.0 0.00 0.01 0.00 92 1021.1
20211017091508 49 302 0.0 0.0 0.00 0.01 0.00 91 1021.0
20211017090008 49 309 0.0 0.0 0.00 0.01 0.00 91 1020.9
20211017084513 49 307 0.0 0.0 0.00 0.01 0.00 91 1020.9
20211017083006 49 321 0.0 0.0 0.00 0.01 0.00 91 1020.7
20211017081518 49 321 0.0 0.0 0.00 0.01 0.00 91 1020.5
20211017080006 49 322 0.0 0.0 0.00 0.01 0.00 90 1020.5
20211017074637 50 322 0.0 0.0 0.00 0.01 0.00 90 1020.5
20211017073258 50 321 0.0 0.0 0.00 0.01 0.00 89 1020.7
20211017071651 50 321 0.0 0.0 0.00 0.01 0.00 89 1020.8
20211017070135 51 321 0.0 0.0 0.00 0.01 0.00 88 1020.8
20211017064656 51 321 0.0 0.0 0.00 0.01 0.00 88 1020.9
20211017063117 50 330 0.0 0.0 0.00 0.01 0.00 89 1020.8
20211017061555 51 332 0.0 0.0 0.00 0.01 0.00 89 1020.9
20211017060130 51 332 0.0 0.0 0.00 0.01 0.00 88 1020.9
20211017054559 52 333 0.0 0.0 0.00 0.01 0.00 87 1020.8
20211017053113 52 333 0.0 0.0 0.00 0.01 0.00 87 1020.8
20211017051614 53 320 0.0 0.0 0.00 0.01 0.00 86 1020.9
20211017050101 53 341 0.0 0.0 0.00 0.01 0.00 86 1020.9
20211017044609 53 335 0.0 0.0 0.00 0.01 0.01 86 1021.1
20211017043107 54 331 0.0 0.0 0.00 0.01 0.01 85 1021.1
20211017041648 54 310 0.0 0.0 0.00 0.01 0.01 84 1021.1
20211017040035 55 317 0.0 0.0 0.00 0.01 0.01 84 1021.1
20211017034615 55 326 0.0 0.0 0.00 0.01 0.01 83 1021.0
20211017033033 55 328 0.0 0.0 0.00 0.01 0.01 82 1020.9
20211017031543 56 317 0.0 0.0 0.00 0.01 0.01 82 1020.7
20211017030056 56 343 0.0 0.0 0.00 0.01 0.01 81 1020.8
20211017024545 56 328 0.0 0.0 0.00 0.01 0.01 80 1020.6
20211017023031 57 321 0.0 0.0 0.00 0.01 0.01 79 1020.3
20211017021559 57 328 0.0 0.0 0.00 0.01 0.01 78 1020.2
20211017020050 58 321 0.0 0.0 0.00 0.01 0.01 77 1020.1
20211017014533 59 318 0.0 0.0 0.00 0.01 0.01 76 1019.9
20211017013009 59 329 0.0 0.0 0.00 0.01 0.01 75 1019.7
20211017011524 60 333 0.0 0.0 0.00 0.01 0.01 74 1019.6
20211017010027 60 330 0.0 0.0 0.00 0.01 0.01 75 1019.2
20211017003121 62 317 0.0 0.0 0.00 0.01 0.01 70 1018.8
20211017001618 62 320 0.0 0.0 0.00 0.01 0.01 69 1018.8
20211017000248 63 335 0.0 0.0 0.00 0.01 0.01 67 1018.7
20211016234606 64 329 0.0 2.6 0.00 0.01 0.01 65 1018.3
20211016233117 64 328 0.0 2.6 0.00 0.01 0.01 64 1018.0
20211016231609 65 346 0.0 2.6 0.00 0.01 0.01 63 1017.8
20211016230110 66 326 0.0 1.7 0.00 0.01 0.01 62 1017.6
20211016224559 67 330 0.0 0.0 0.00 0.06 0.01 65 1017.3
20211016223057 69 332 0.0 2.6 0.00 0.06 0.01 63 1017.1
20211016221558 69 331 0.0 2.6 0.00 0.06 0.01 60 1016.9
20211016220125 70 336 0.0 3.5 0.00 0.06 0.01 60 1016.7
20211016214640 71 345 0.0 4.3 0.00 0.08 0.01 59 1016.8
20211016213049 71 333 0.0 5.2 0.00 0.08 0.01 60 1016.7
20211016211600 72 1 0.0 1.7 0.00 0.08 0.01 61 1016.6
20211016210111 72 11 0.0 1.7 0.00 0.08 0.01 61 1016.5
20211016204624 72 50 0.0 4.3 0.00 0.08 0.01 61 1016.7
20211016203141 72 359 0.0 4.3 0.00 0.08 0.01 60 1016.6
20211016201631 72 330 1.7 7.0 0.00 0.08 0.01 60 1016.6
20211016200107 72 335 0.0 8.7 0.00 0.08 0.01 62 1016.5
20211016194557 72 300 0.0 7.0 0.00 0.08 0.01 62 1016.5
20211016193048 71 331 0.9 9.6 0.00 0.08 0.01 65 1016.4
20211016191606 71 316 0.0 6.1 0.00 0.08 0.01 66 1016.5
20211016190059 71 335 0.0 5.2 0.00 0.08 0.01 68 1016.6
20211016184545 70 328 0.0 7.0 0.00 0.08 0.01 69 1016.7
20211016183118 70 338 0.0 8.7 0.00 0.08 0.01 68 1016.9
20211016181605 69 8 0.0 5.2 0.00 0.08 0.01 73 1017.0
20211016180059 69 345 0.0 4.3 0.00 0.08 0.01 75 1017.2
20211016174536 68 11 0.0 7.0 0.00 0.08 0.01 78 1017.4
20211016173116 67 34 0.0 7.8 0.00 0.08 0.01 80 1017.5
20211016171553 67 47 0.9 8.7 0.00 0.08 0.01 81 1017.7
20211016170048 66 345 0.9 6.1 0.00 0.08 0.01 82 1018.0